Simultaneous Nadir Overpasses (SNOs) Predictions

Prediction of SNOs between GOES-16 and AQUA Satellite Orbit:

Table of predicted SNOs for the next 14.0 days since TLE Epoch: 12/24/2022
Index Date Time (GOES-16) GOES-16 Lat,Lon AQUA Lat,Lon Distance(km) Time Diff (sec)
1 12/24/2022 06:44:57 -0.02, -75.19 -0.04, -75.12 7.72 80
2 12/26/2022 06:31:57 -0.02, -75.19 -0.73, -71.96 368.84 80
3 12/26/2022 18:50:27 0.02, -75.20 -0.38, -77.09 214.25 80
4 12/28/2022 18:40:06 0.02, -75.22 0.28, -73.91 148.23 80
5 12/29/2022 07:01:09 -0.03, -75.22 0.79, -79.02 431.62 80
6 12/31/2022 06:48:08 -0.02, -75.25 0.09, -75.85 67.82 80
7 01/02/2023 06:32:26 -0.01, -75.28 -0.57, -72.67 296.81 80
8 01/02/2023 18:53:37 0.01, -75.29 -0.52, -77.80 285.50 80
9 01/04/2023 18:43:15 0.00, -75.33 0.17, -74.63 79.95 80
10 01/05/2023 07:04:17 0.00, -75.34 0.95, -79.72 499.12 80
11 01/06/2023 18:30:12 -0.01, -75.37 0.83, -71.45 445.86 80
